Погода в Панипате

Индия     29°22′58″N   76°58′09″E
темп.,
°C
ветер,
м/с
пор.,
м/с
влажн.,
%
обл.,
%
осадки,
мм/ч
давл.,
гПа
погр.,
м
17 сентября, пт
пт1723:30+24ююв410847 0.1 1004363
02:30+23ююв11855 0.0 100323
05:30+23всв11875 0.0 100313
08:30+25ссв237639 0.1 1005242
11:30+30вюв34597 0.1 10051085
14:30+30ю436245 0.0 1003893
17:30+25ююв238323 2.9 1003120
20:30+25юв22815 1.7 100412
18 сентября, сб
сб1823:30+24вюв34865 1.7 100568
02:30+24в310855 0.0 1004232
05:30+23вюв24891 0.0 100579
08:30+26вюв35790 0.0 1007387
11:30+31св45610 0.0 1007999
14:30+32ссв44560 0.0 10041275
17:30+31ссв12670 0.0 100330
20:30+28сз11715 0.0 100511
19 сентября, вс
вс1923:30+27ююв22760 0.0 100630
02:30+26юв23824 0.0 100651
05:30+25вюв36873 0.0 1006138
08:30+28вюв35770 0.0 1008357
11:30+32юв336216 0.3 10071229
14:30+34ююв115160 0.6 10041872
17:30+31зсз116997 0.6 100319
20:30+30в116796 0.0 100511
20 сентября, пн
пн2023:30+29ююв356969 0.0 1005108
02:30+28ююв357642 0.0 1005104
05:30+28юв2375100 0.0 100587
08:30+29юв357539 0.0 1007316
11:30+33юв44571 0.3 10061300
14:30+33всв225782 2.9 10031165
17:30+31юв227135 3.9 100326
20:30+29вюв227636 0.1 100425
21 сентября, вт
вт2123:30+28вюв348344 0.2 100564
02:30+27вюв368734 0.0 1004151
05:30+26всв359178 2.6 1004116
08:30+29вюв477916 3.8 1005284
11:30+31юв456538 9.9 1005843
14:30+33юв335822 3.8 10031259
17:30+28в477839 5.5 1003183
20:30+25в38920 0.1 1004226